Entebbe, Uganda

4:13 PM EAT on August 23, 2017 (GMT +0300)
Entebbe

Weather History for HUEN - October, 2012

Change the Weather History Date:

Tuesday, October 9, 2012

  Actual Average Record
Temperature  
Mean Temperature 74 °F -  
Max Temperature 81 °F 76 °F 81 °F (2012)
Min Temperature 68 °F 65 °F 64 °F (2001)
Cooling Degree Days 10    
Growing Degree Days 24 (Base 50)    
Moisture  
Dew Point 67 °F    
Average Humidity 76    
Maximum Humidity 88    
Minimum Humidity 60    
Precipitation  
Precipitation 0.00 in - - ()
Sea Level Pressure  
Sea Level Pressure 30.00 in    
Wind  
Wind Speed 5 mph ()    
Max Wind Speed 10 mph    
Max Gust Speed -    
Visibility 6.2 miles    
Events      
Averages and records for this station are not official NWS values.
T = Trace of Precipitation, MM = Missing Value Source: Averaged Metar Reports

Daily Weather History Graph

Daily Weather History Graph

Search for Another Location

Airport or City:

Trip Planner

Search our weather history database for the weather conditions in past years. The results will help you decide how hot, cold, wet, or windy it might be!

Date:

Astronomy

Oct. 09, 2012 Rise Set
Actual Time 6:34 AM EAT 6:40 PM EAT
Civil Twilight 6:13 AM EAT 7:01 PM EAT
Nautical Twilight 5:49 AM EAT 7:25 PM EAT
Astronomical Twilight 5:25 AM EAT 7:49 PM EAT
Moon 1:14 AM EAT (10/9) 1:37 PM EAT (10/9)
Length of Visible Light 12h 48m
Length of Day
12h 06m
Last Quarter, 40% of the Moon is Illuminated
Oct 9
Last Quarter
Oct 15
New
Oct 22
First Quarter
Oct 29
Full
Nov 7
Last Quarter

Hourly Weather History & Observations

Time (EAT) Temp. Heat Index Dew Point Humidity Pressure Visibility Wind Dir Wind Speed Gust Speed Precip Events Conditions
12:00 AM 71 °F - 66 °F 78%  in 6 mi NW 4.6 mph - -   Scattered Clouds
12:00 AM 69.8 °F - 66.2 °F 88% 30.04 in 6.2 mi NW 4.6 mph - N/A   Scattered Clouds
1:00 AM 69.8 °F - 66.2 °F 88% 30.04 in 6.2 mi NNW 6.9 mph - N/A   Scattered Clouds
2:00 AM 69.8 °F - 66.2 °F 88% 29.98 in 6.2 mi NNW 5.8 mph - N/A   Mostly Cloudy
3:00 AM 69 °F - 66 °F 86%  in 6 mi NNW 3.5 mph - -   Scattered Clouds
3:00 AM 69.8 °F - 66.2 °F 88% 29.98 in 6.2 mi NNW 3.5 mph - N/A   Mostly Cloudy
4:00 AM 68.0 °F - 64.4 °F 88% 29.98 in 6.2 mi NNW 2.3 mph - N/A   Mostly Cloudy
5:00 AM 68.0 °F - 64.4 °F 88% 30.01 in 6.2 mi NNE 3.5 mph - N/A   Mostly Cloudy
6:00 AM 68.0 °F - 64.4 °F 88% 30.01 in 6.2 mi North 3.5 mph - N/A   Mostly Cloudy
8:00 AM 69.8 °F - 66.2 °F 88% 30.06 in 6.2 mi ENE 3.5 mph - N/A   Mostly Cloudy
9:00 AM 73.4 °F - 64.4 °F 73% 30.06 in 6.2 mi SSW 4.6 mph - N/A   Mostly Cloudy
10:00 AM 77.0 °F - 66.2 °F 69% 30.04 in 6.2 mi NW 4.6 mph - N/A   Mostly Cloudy
11:00 AM 78.8 °F - 66.2 °F 65% 30.06 in 6.2 mi SSW 4.6 mph - N/A   Mostly Cloudy
12:00 PM 78.8 °F - 68.0 °F 69% 30.04 in 6.2 mi South 6.9 mph - N/A   Mostly Cloudy
1:00 PM 80.6 °F 83.2 °F 68.0 °F 65% - 6.2 mi SW 8.1 mph - N/A   Mostly Cloudy
2:00 PM 80.6 °F 83.9 °F 69.8 °F 70% 29.98 in 6.2 mi SW 4.6 mph - N/A   Mostly Cloudy
3:00 PM 81 °F - 69 °F 60%  in 6 mi SSW 10.4 mph - -  
3:00 PM 80.6 °F 83.9 °F 69.8 °F 70% 29.98 in 6.2 mi SSW 10.4 mph - N/A   Mostly Cloudy
4:00 PM 82.4 °F 86.3 °F 69.8 °F 66% 29.95 in 6.2 mi SSW 8.1 mph - N/A   Mostly Cloudy
5:00 PM 80.6 °F 83.2 °F 68.0 °F 65% 29.95 in 6.2 mi South 8.1 mph - N/A   Mostly Cloudy
6:00 PM 78 °F - 68 °F 65%  in 6 mi SW 5.8 mph - -   Scattered Clouds
6:00 PM 78.8 °F - 68.0 °F 69% 29.95 in 6.2 mi SW 5.8 mph - N/A   Mostly Cloudy
7:00 PM 75.2 °F - 68.0 °F 78% 29.95 in 6.2 mi South 3.5 mph - N/A   Mostly Cloudy
8:00 PM 71.6 °F - 66.2 °F 83% 30.01 in 6.2 mi NNW 4.6 mph - N/A   Mostly Cloudy
9:00 PM 71 °F - 64 °F 73%  in 6 mi NE 4.6 mph - -   Scattered Clouds
9:00 PM 71.6 °F - 64.4 °F 78% 30.01 in 6.2 mi NE 4.6 mph - N/A   Partly Cloudy